Gretna, Manitoba

6:56 PM CDT on April 21, 2018 (GMT -0500)
Gretna

Weather History for CWGN - September, 2013

Change the Weather History Date:

Monday, September 9, 2013

  Actual Average Record
Temperature  
Mean Temperature 62 °F -  
Max Temperature 64 °F - - ()
Min Temperature 60 °F - - ()
Degree Days  
Heating Degree Days 3    
Growing Degree Days 12 (Base 50)    
Moisture  
Dew Point 60 °F    
Average Humidity 90    
Maximum Humidity 95    
Minimum Humidity 82    
Precipitation  
Precipitation 0.08 in - - ()
Sea Level Pressure  
Sea Level Pressure 29.73 in    
Wind  
Wind Speed 5 mph ()    
Max Wind Speed 10 mph    
Max Gust Speed -    
T = Trace of Precipitation, MM = Missing Value Source: Averaged Metar Reports

Daily Weather History Graph

Daily Weather History Graph

Search for Another Location

Airport or City:

Astronomy

Sep. 09, 2013 Rise Set
Actual Time 6:58 AM CDT 7:55 PM CDT
Civil Twilight 6:26 AM CDT 8:27 PM CDT
Nautical Twilight 5:47 AM CDT 9:06 PM CDT
Astronomical Twilight 5:06 AM CDT 9:46 PM CDT
Moon 11:48 AM CDT (9/9) 9:44 PM CDT (9/9)
Length of Visible Light 14h 01m
Length of Day
12h 56m
Waxing Crescent, 19% of the Moon is Illuminated
Sep 9
Waxing Crescent
Sep 12
First Quarter
Sep 19
Full
Sep 26
Last Quarter
Oct 4
New

Hourly Weather History & Observations

Time (CDT) Temp. Dew Point Humidity Pressure Visibility Wind Dir Wind Speed Gust Speed Precip Events Conditions
12:00 AM 62.4 °F 58.8 °F 88% 29.82 in - South 3.5 mph - N/A   Unknown
1:00 AM 61.5 °F 57.4 °F 86% 29.81 in - SE 2.3 mph - N/A   Unknown
2:00 AM 61.5 °F 57.2 °F 86% 29.81 in - SE 4.6 mph - N/A   Unknown
3:00 AM 61.0 °F 57.4 °F 88% 29.77 in - ESE 3.5 mph - N/A   Unknown
4:00 AM 61 °F 58 °F 85% 29.74 in - ENE 3.5 mph - -  
4:00 AM 60.8 °F 57.7 °F 90% 29.74 in - ENE 3.5 mph - N/A   Unknown
5:00 AM 60.8 °F 57.9 °F 90% 29.75 in - ENE 3.5 mph - N/A   Unknown
6:00 AM 60.6 °F 58.8 °F 94% 29.76 in - East 3.5 mph - 0.02 in   Unknown
7:00 AM 61 °F 59 °F 92% 29.73 in - ENE 5.8 mph - -  
7:00 AM 60.8 °F 59.2 °F 94% 29.73 in - ENE 5.8 mph - 0.06 in   Unknown
8:00 AM 61.0 °F 59.5 °F 95% 29.69 in - NNE 8.1 mph - 0.01 in   Unknown
9:00 AM 61.2 °F 59.7 °F 95% 29.68 in - NE 6.9 mph - N/A   Unknown
10:00 AM 62 °F 60 °F 93% 29.70 in - NE 4.6 mph - -  
10:00 AM 62.1 °F 60.4 °F 94% 29.70 in - ENE 4.6 mph - N/A   Unknown
11:00 AM 63.0 °F 60.6 °F 92% 29.70 in - North 8.1 mph - N/A   Unknown
12:00 PM 63.3 °F 60.6 °F 91% 29.71 in - NE 5.8 mph - N/A   Unknown
1:00 PM 64 °F 61 °F 85% 29.70 in - North 8.1 mph - -  
1:00 PM 64.2 °F 60.6 °F 88% 29.70 in - North 9.2 mph - N/A   Unknown
2:00 PM 63.9 °F 60.4 °F 89% 29.71 in - North 9.2 mph - N/A   Unknown
3:00 PM 64.4 °F 61.0 °F 89% 29.69 in - North 9.2 mph - N/A   Unknown
4:00 PM 64 °F 61 °F 87% 29.70 in - North 9.2 mph - -  
4:00 PM 64.0 °F 61.0 °F 90% 29.70 in - North 10.4 mph - 0.02 in   Unknown
5:00 PM 64.8 °F 61.2 °F 88% 29.71 in - North 6.9 mph - N/A   Unknown
6:00 PM 64.8 °F 61.0 °F 88% 29.72 in - NNW 6.9 mph - N/A   Unknown
7:00 PM 65 °F 61 °F 82% 29.73 in - North 6.9 mph - -  
7:00 PM 64.6 °F 60.8 °F 88% 29.73 in - North 5.8 mph - N/A   Unknown
8:00 PM 64.0 °F 61.0 °F 90% 29.74 in - NW 2.3 mph - N/A   Unknown
9:00 PM 63.5 °F 60.8 °F 91% 29.75 in - NW 4.6 mph - N/A   Unknown
10:00 PM 63 °F 61 °F 90% 29.75 in - NW 2.3 mph - -  
10:00 PM 63.3 °F 60.8 °F 91% 29.75 in - NW 2.3 mph - N/A   Unknown
11:00 PM 63.1 °F 61.0 °F 93% 29.76 in - West 3.5 mph - N/A   Unknown